Delta Virtual Airport Information Service

Memphis International Airport

ICAO: KMEM Country: United States
Latitude: 35.0424 Longitude: -89.9766
Latest Arrival : FDX6332581 (KIAD-KMEM) Latest Departure : FDX6332582 (KMEM-KIAD)


WX CaptureLIVE
Data provided by noaa.gov | Fetched at 21:45:36

METAR : KMEM 240233Z 01014G22KT 10SM SCT012 OVC018 15/12 A3010 RMK AO2 T01500117 $

TAF : KMEM 240158Z 2402/2506 35012G18KT P6SM VCSH SCT009 BKN017 TEMPO 2402/2404 BKN009 FM240500 01015G21KT P6SM VCSH BKN014 OVC030 FM241100 02010KT P6SM OVC012 FM241600 02009KT P6SM OVC015 FM241900 03008KT P6SM OVC022 FM250300 06003KT P6SM OVC015


Runway Data for KMEM
Data provided by openaviationdata.com

Runway ID Mag Var Hdg Length Elevation Surface ILS Freq ILS Id ILS Slope
9 0 91° 8936 ft 288 ft Asphalt 109.5 IMEM 3
18L 0 178° 9015 ft 288 ft Concrete 111.15 IEXS 3
18R 0 178° 9335 ft 288 ft Concrete 109.9 IOOI 3
18C 0 178° 11138 ft 288 ft Concrete 111.95 ISDU 3
27 0 271° 8936 ft 288 ft Asphalt 108.7 IJIM 3
36L 0 358° 9335 ft 288 ft Concrete 108.9 IOHN 3
36R 0 358° 9015 ft 288 ft Concrete 111.35 IMYO 3
36C 0 358° 11138 ft 288 ft Concrete 110.5 ITSE 3

Memphis International Airport, United States
Use only for reference purposes



Not for navigational purposes.